Погода Весёлая Горка

Погода Весёлая Горка : погода сейчас, прогноз погоды и архив. Всё, что Вы хотите узнать о погоде Весёлая Горка!

Поиск расширенной информации на нашем сайте:

Другие новости

Новости СМИ2

Главная страница сайта

Новости сайта

03.07.2017

Напоминаем, что на нашем специализированном сайте Метеоцентр.Азия вы можете получить высокодетализированные автоматические прогнозы погоды по пунктам России, СНГ и мира в авиационном формате (включающие направление и скорость ветра, видимость, явления погоды, количество и форму облачности, нижнюю и верхнюю границу облачности).


Погода Весёлая Горка - сегодня

Время (UTC), дата Ветер
(°,м/с) 
Видим.   Явления Облачность Т
(°С)
Тd
(°С)
f(%) Тe
(°С)
Pmin
(гПа)
dP
(гПа)
Po
(мм)
O2
(г/м3)
Тmin Tmax R s Состояние
почвы
18 19.05.18 010 (С) 20000 м    3/0 верхняя 
[Ci]
+6.8 +0.7 65 +8  1017.1  -0.1  744  293           
00 20.05.18 010 (С) 20000 м  в посл. час ливневой дождь  10/10 600 м кучево-дожд. 
[Cb cap]
+9.4 +4.2 70 +10  1015  -1.4  743  289           
03 20.05.18 010 (С) 20000 м    10/5 600 м кучево-дожд., средняя, верхняя 
[Cb cap|Ac lent|Ci sp]
+20.5 +5.1 36 +21  1011.4  -2.7  741  277           
06 20.05.18 010 (С) 20000 м    10/3 600 м кучево-дожд., средняя, верхняя 
[Cb cap|Ac lent|Ci fib]
+24.4 +6.6 32 +24  1008.9  -2.1  740  272           
12 20.05.18 тихо ()   20000 м    10/8 600 м средняя, верхняя 
[Sc|Ac trans|Ci sp]
+16.8 +7.2 53 +17  1011.8  2.5  741  280           
15 20.05.18 020 (С) 20000 м    10/10 600 м 
[Sc]
+15 +7 59 +16  1014.9  2.8  743  283           
18 20.05.18 010 (С) 20000 м    10/10 600 м кучево-дожд. 
[Cb cap]
+11.2 +7.8 80 +11  1017.2  745  287           
21 20.05.18 010 (С) 10 км  слаб. ливневой дождь  10/10 600 м кучево-дожд. 
[Cb cap]
+10.1 +7.1 82 +11  1020  2.6  747  289  +10.1    0.0    влажная 
03 21.05.18 010 (С) 20000 м    8/8 600 м кучево-дожд. 
[Cb cap]
+16.9 +3.5 41 +18  1018.6  -2  746  283           
06 21.05.18 010 (С) 20000 м    1/1 600 м 
[Cu hum]
+19.2 +2.7 33 +21  1016.7  -1.7  745  280           
12 21.05.18 010 (С) 20000 м    ясно 
+12.4 +5.6 63 +14  1013.6  -0.8  742  285           
15 21.05.18 010 (С) 20000 м    ясно 
+10.1 +5 71 +11  1011.2  -2.5  740  287           
18 21.05.18 тихо ()   20000 м    ясно 
+7.9 +6.3 90 +8  1009.5  -1.9  739  288           
21 21.05.18 010 (С) 20000 м    10/0 средняя, верхняя 
[Ac lent|Ci sp]
+9.9 +7.4 84 +11  1008.2  -1  738  286  +7.3        мокрая 
00 22.05.18 010 (С) 20000 м    10/0 верхняя 
[Ci sp]
+18 +8.2 53 +19  1005.1  -2.4  736  277           
03 22.05.18 010 (С) 20000 м    10/4 600 м верхняя 
[Sc diur, vesp|Ci]
+27.6 +3.2 21 +28  1000.3  -3.9  733  268           
06 22.05.18 010 (С) 20000 м    10/1 600 м верхняя 
[Cu hum|Ci fib]
+30.6 -0.9 13 +31  996.4  -3.6  731  265           
12 22.05.18 010 (С) 20000 м    ясно 
+20.4 +5.8 38 +20  995.9  -1.6  730  273           
15 22.05.18 360 (С) 20000 м    ясно 
+15.3 +6.7 56 +17  998.1  1.8  731  278           
18 22.05.18 360 (С) 20000 м    10/0 верхняя 
[Ci fib]
+11.8 +4.6 61 +13  998.5  -0.1  731  282           
00 23.05.18 010 (С) 20000 м    10/0 верхняя 
[Cs]
+17.2 +4.8 44 +18  997.8  -0.7  731  276           
03 23.05.18 010 (С) 20000 м    10/8 600 м кучево-дожд., верхняя 
[Cb cap|Ci]
+20.7 +6.5 40 +21  995.7  -1.7  730  272           
06 23.05.18 010 (С) 20000 м    10/10 600 м кучево-дожд. 
[Cb cap]
+21.2 +3.5 31 +21  994.8  -0.8  729  272           
12 23.05.18 020 (С) 2000 м  ливневой дождь  10/10 600 м кучево-дожд. 
[Cb cap]
+11.3 +10.4 94 +14  995.8  -0.6  729  280           
15 23.05.18 010 (С) 4000 м  слаб. ливневой дождь  10/10 600 м кучево-дожд. 
[Cb cap]
+8.2 +5.7 84 +9  995.6  -0.4  729  284           
Время (UTC), дата Ветер
(°,м/с) 
Видим.   Явления Облачность Т
(°С)
Тd
(°С)
f(%) Тe
(°С)
Pmin
(гПа)
dP
(гПа)
Po
(мм)
O2
(г/м3)
Тmin Tmax R s Состояние
почвы

Для получения пояснительной информации подведите курсор к названию столбца.

ПОГОДА Весёлая Горка - архив

Всё, что Вы хотите узнать о погоде Весёлая Горка - удобно и подробно!

Выберите нужную дату (начиная с 1 января 2015* года) и нажмите кнопку "Найти".
Будут отображены архивные сводки погоды по пункту Весёлая Горка, начиная с указанной даты.


Отображать данные в формате CSV (для использования в таблицах Excel)


Внимание! Наш архив погоды предназначен исключительно для личного некоммерческого использования в познавательных целях. Если Вам необходимы официальные справки о состоянии погоды (для производственных, юридических, коммерческих и т.п. целей), обращайтесь в органы Росгидромета.

*Примечание: данная дата относится к архиву по метеостанциям СССР (Россия, СНГ, Балтия).
Архив по метеостанциям Зарубежной Европы и Азии (кроме Китая) хранится 10 дней, по другим регионам земного шара (Китай, Африка, Америка, Австралия, Океания) - 1 день.

Весёлая Горка - район местоположения метеостанции


Название, широта, долгота, высота метеостанции:
Весёлая Горка 52.3°ш. 135.8°д. 201 м над ур. моря [Российская Федерация]

Дополнительная информация

В oтличие oт бoльшинства пoгoдных сайтoв мы публикуем пoдрoбную метеoинфoрмацию в детальнoм прoфессиoнальнoм фoрмате.

Характеристики температуры и влажнoсти вoздуха измеряются на высoте 2 м в тени вдали oт зданий и деревьев.
Скoрoсть ветра измеряется на высoте 10 м (на урoвне рoста челoвека скoрoсть ветра ниже в 1.5-2 раза). Если метеoстанция нахoдится в гoрoде или в лесу, тo скoрoсть ветра занижена на 2-4 м/с пo сравнению с oткрытым местoм. Скoрoсть ветра над акватoриями крупных рек и oзёр, а также на вершинах хoлмoв на 2-5 м/с выше, чем в oбычных услoвиях.
Атмoсфернoе давление в разных тoчках местнoсти мoжет значительнo oтличаться oт давления на метеoстанции, в зависимoсти oт услoвий рельефа (при пoдъёме на 10 м давление пoнижается примернo на 1 мм рт.ст.).